[[{"header":{"parameterUnit":"m.s-1","parameterCategory":1,"la1":30.2991,"la2":30.254,"lo1":-89.0895,"lo2":-89.0444,"dy":0.0017,"dx":0.0017,"nx":28,"ny":28,"refTime":"2023-10-19T09:00:00:Z","depth":0,"parameterNumber":2,"parameterNumberName":"U-component_of_WINDS"},"data":[0,0,0,0,0,0,0,0,0,0,0,0,0,0,0,0,0,0,0,0,0,0,0,0,0,0,0,0,0,0,0,0,0,0,0,0,0,0,0,0,0,0,0,0,0,0,0,0,0,0,0,0,0,0,0,0,0,0,0.6167,0.6166,0,0.609,0.6089,0.6088,0.6072,0.6072,0.6073,0.6074,0.5993,0.5991,0.5988,0,0,0,0,0,0,0,0,0,0,0,0,0,0.6304,0.6301,0.6167,0.6166,0.6165,0.609,0.6089,0.6088,0.6072,0.6072,0.6073,0.6074,0.5994,0.5991,0.5988,0,0,0,0,0,0,0,0,0,0,0,0,0,0.6237,0.63,0.6167,0.6148,0.6146,0.609,0.6089,0.6087,0.6072,0.6073,0.6073,0.6074,0.5995,0.5991,0.5988,0.5945,0,0,0.5975,0.5973,0,0,0,0,0,0,0,0,0.6241,0.6232,0.6152,0.615,0.6147,0.6091,0.6107,0.604,0.6071,0.61,0.6074,0.6075,0.6025,0.6019,0.6002,0.5941,0.5938,0.5975,0.5972,0.5971,0.597,0,0,0,0,0,0,0,0.6245,0.6235,0.6136,0.6151,0.6148,0.6144,0.6136,0.6094,0.6058,0.6097,0.6096,0.6087,0.6024,0.6006,0.6,0.5937,0.5975,0.5971,0.5969,0.5967,0.584,0.5839,0,0,0,0,0,0,0.6253,0.6239,0.6139,0.6134,0.6197,0.6141,0.6132,0.6108,0.6059,0.6052,0.6086,0.6087,0.6013,0.6005,0.5997,0.5946,0.5971,0.5967,0.5965,0.5841,0.584,0.5839,0,0,0,0,0,0,0.6256,0.6244,0.6142,0.6186,0.6173,0.6138,0.6112,0.6106,0.6088,0.6051,0.6044,0.6075,0.6013,0.6003,0.5959,0.5943,0.5965,0.5961,0.5842,0.5841,0.5839,0.5843,0,0,0,0,0,0,0.626,0.6246,0.6228,0.6186,0.6171,0.6104,0.6111,0.6104,0.6082,0.6081,0.6038,0.6032,0.6013,0.5965,0.5955,0.5938,0.5958,0.5843,0.5841,0.584,0.5844,0.5841,0.5839,0,0,0,0,0,0.6265,0.6231,0.6228,0.6216,0.6148,0.6103,0.6095,0.6074,0.608,0.6063,0.604,0.6033,0.5947,0.5961,0.5949,0.5931,0.5844,0.5842,0.584,0.5845,0.5842,0.584,0,0,0,0,0,0,0.6271,0.6225,0.622,0.6172,0.6142,0.6101,0.6078,0.6071,0.6038,0.6039,0.6015,0.6005,0.5963,0.5942,0.5959,0.5889,0.5896,0.5891,0.5904,0.5901,0.5898,0.5904,0.5955,0,0,0,0,0,0.6267,0.6235,0.6196,0.6157,0.6142,0.6113,0.6093,0.608,0.6047,0.6034,0.6007,0.5976,0.5942,0.592,0.5887,0.5841,0.5833,0.5823,0.5821,0.582,0.5816,0.5793,0.5789,0.5832,0.5832,0.5832,0,0,0.6258,0.6229,0.6209,0.6158,0.6133,0.61,0.6102,0.6067,0.6043,0.6029,0.5986,0.5965,0.5929,0.5885,0.5864,0.5866,0.5802,0.5817,0.5816,0.5813,0.579,0.5786,0.5783,0.583,0.583,0.5831,0,0,0.6225,0.6199,0.6165,0.6141,0.6104,0.6085,0.6077,0.6038,0.6024,0.5981,0.5971,0.5942,0.5883,0.5859,0.5839,0.5801,0.5795,0.5791,0.578,0.5757,0.5754,0.5751,0.5739,0.5735,0.5787,0.5787,0.5787,0,0.6218,0.6168,0.6148,0.6114,0.6093,0.608,0.6047,0.6024,0.5978,0.5964,0.5968,0.5896,0.5871,0.5822,0.5813,0.5797,0.5788,0.5795,0.5756,0.5753,0.575,0.5738,0.5733,0.5787,0.5787,0.5787,0.5787,0,0.6163,0.6129,0.6106,0.6063,0.6039,0.6005,0.5981,0.596,0.595,0.5932,0.5889,0.5859,0.5821,0.5808,0.5797,0.5758,0.5761,0.5761,0.5768,0.5746,0.5735,0.573,0.5787,0.5787,0.5787,0.5787,0,0,0.6128,0.6078,0.607,0.6052,0.6012,0.5986,0.5953,0.5916,0.5899,0.5868,0.5841,0.5794,0.5794,0.5771,0.5758,0.5739,0.5713,0.5741,0.574,0.5738,0.5671,0.5672,0.5667,0.5709,0.5708,0.5707,0.5674,0,0.6091,0.6032,0.6015,0.5965,0.5935,0.5925,0.5896,0.5869,0.5852,0.5824,0.5805,0.5773,0.5775,0.5762,0.5742,0.572,0.57,0.5723,0.5684,0.5683,0.5694,0.5661,0.5661,0.5631,0.567,0.5669,0.5668,0,0.6038,0.6009,0.5957,0.5925,0.5911,0.5886,0.5853,0.5826,0.5796,0.5785,0.5762,0.5752,0.5718,0.5728,0.5682,0.5698,0.5682,0.567,0.5668,0.5663,0.5674,0.5656,0.5621,0.5617,0.5661,0.5661,0.5662,0,0.6021,0.5968,0.5931,0.5916,0.5876,0.5859,0.5842,0.5813,0.5793,0.5765,0.5752,0.5719,0.5702,0.5677,0.5659,0.5667,0.5616,0.5623,0.5606,0.5607,0.5595,0.5596,0.5558,0.5584,0.5584,0.5584,0.5585,0,0.5981,0.595,0.5923,0.59,0.5866,0.5848,0.5814,0.5796,0.5772,0.5746,0.5735,0.5711,0.5688,0.5662,0.5647,0.5613,0.5605,0.5596,0.5592,0.5597,0.5598,0.5585,0.5587,0.5583,0.5584,0.5584,0.5584,0,0.5954,0.5935,0.5894,0.5862,0.5853,0.5829,0.5801,0.5779,0.5763,0.5731,0.5722,0.5697,0.5665,0.5645,0.5604,0.5595,0.5558,0.5554,0.5568,0.5566,0.5552,0.5554,0.5503,0.5497,0.5528,0.5527,0.5527,0,0.593,0.5907,0.5873,0.5855,0.5838,0.581,0.5791,0.5773,0.5753,0.572,0.5703,0.5671,0.5644,0.5595,0.5573,0.5543,0.5539,0.5524,0.5534,0.554,0.554,0.5542,0.554,0.5522,0.5521,0.5521,0.5521,0,0.589,0.5883,0.5856,0.5826,0.5804,0.5779,0.5755,0.5741,0.572,0.5699,0.5667,0.5647,0.5607,0.5576,0.5545,0.5527,0.5521,0.5518,0.5513,0.5517,0.5527,0.5523,0.5564,0.5519,0.5519,0.552,0.552,0.552,0.5864,0.5844,0.5818,0.5789,0.577,0.5748,0.5727,0.5709,0.5683,0.565,0.5641,0.5609,0.5583,0.554,0.5523,0.5498,0.5499,0.5491,0.5489,0.5488,0.5489,0.5531,0.5492,0.5492,0.5492,0.5492,0.5492,0,0.5825,0.5809,0.5782,0.575,0.5728,0.5725,0.5699,0.5681,0.5653,0.563,0.5605,0.557,0.5541,0.5518,0.5489,0.5473,0.547,0.5466,0.5467,0.5464,0.5488,0.5496,0.547,0.547,0.547,0.547,0.547,0.547,0.5801,0.5768,0.5758,0.5715,0.5699,0.5668,0.5654,0.5635,0.5616,0.5579,0.5555,0.5541,0.5518,0.5488,0.5462,0.5456,0.5446,0.5443,0.5436,0.5459,0.5462,0.5464,0.5471,0.5441,0.544,0.5414,0.5414,0.5414]},{"header":{"parameterUnit":"m.s-1","parameterCategory":1,"la1":30.2991,"la2":30.254,"lo1":-89.0895,"lo2":-89.0444,"dy":0.0017,"dx":0.0017,"nx":28,"ny":28,"refTime":"2023-10-19T09:00:00:Z","depth":0,"parameterNumber":3,"parameterNumberName":"V-component_of_WINDS"},"data":[0,0,0,0,0,0,0,0,0,0,0,0,0,0,0,0,0,0,0,0,0,0,0,0,0,0,0,0,0,0,0,0,0,0,0,0,0,0,0,0,0,0,0,0,0,0,0,0,0,0,0,0,0,0,0,0,0,0,2.5859,2.5859,0,2.5895,2.5896,2.5896,2.5954,2.5955,2.5956,2.5957,2.599,2.599,2.599,0,0,0,0,0,0,0,0,0,0,0,0,0,2.5834,2.5834,2.5859,2.5859,2.586,2.5895,2.5896,2.5896,2.5954,2.5955,2.5956,2.5957,2.599,2.599,2.599,0,0,0,0,0,0,0,0,0,0,0,0,0,2.5855,2.5834,2.5859,2.5893,2.5896,2.5895,2.5896,2.5896,2.5953,2.5955,2.5957,2.5958,2.599,2.599,2.599,2.5957,0,0,2.5989,2.5989,0,0,0,0,0,0,0,0,2.5853,2.5856,2.5887,2.5891,2.5894,2.5922,2.5899,2.5916,2.5953,2.5932,2.5957,2.5959,2.5966,2.5968,2.5971,2.5958,2.596,2.5989,2.5989,2.5989,2.5989,0,0,0,0,0,0,0,2.5852,2.5854,2.5873,2.5888,2.5892,2.5904,2.5909,2.5902,2.5939,2.5934,2.5938,2.5942,2.5968,2.5971,2.5972,2.596,2.5989,2.5989,2.5989,2.5989,2.5919,2.5917,0,0,0,0,0,0,2.5846,2.5853,2.5872,2.5874,2.5878,2.5904,2.5909,2.5911,2.5939,2.5945,2.594,2.5944,2.597,2.5972,2.5973,2.5934,2.5989,2.5989,2.5989,2.5921,2.5918,2.5917,0,0,0,0,0,0,2.5845,2.5847,2.5871,2.5865,2.5869,2.5902,2.5905,2.5911,2.5914,2.5944,2.5951,2.5937,2.5972,2.5974,2.596,2.5936,2.5989,2.5988,2.5923,2.592,2.5917,2.5858,0,0,0,0,0,0,2.5844,2.5847,2.5836,2.5864,2.5869,2.5858,2.5903,2.5911,2.5914,2.592,2.5943,2.5948,2.5973,2.596,2.596,2.5937,2.5988,2.5925,2.5921,2.5918,2.5862,2.5853,2.5846,0,0,0,0,0,2.5843,2.5818,2.5835,2.5837,2.5856,2.5857,2.5859,2.589,2.5912,2.5901,2.5919,2.5948,2.5939,2.5958,2.5958,2.5935,2.5926,2.5922,2.5919,2.5865,2.5855,2.5846,0,0,0,0,0,0,2.5785,2.5822,2.5842,2.5825,2.5837,2.5867,2.5853,2.5878,2.5883,2.5888,2.5924,2.5928,2.5909,2.5921,2.5942,2.5903,2.5937,2.5933,2.5896,2.5887,2.5879,2.5876,2.5988,0,0,0,0,0,2.5771,2.577,2.5801,2.5783,2.5788,2.5819,2.5821,2.5843,2.5856,2.5862,2.588,2.5891,2.589,2.5889,2.5891,2.5864,2.5868,2.5848,2.584,2.5833,2.5829,2.5813,2.5803,2.5904,2.5904,2.5904,0,0,2.574,2.576,2.5757,2.5771,2.5784,2.578,2.5823,2.5818,2.5814,2.586,2.5849,2.5862,2.5876,2.5855,2.5847,2.5864,2.5802,2.5828,2.5823,2.5822,2.5808,2.5798,2.579,2.5901,2.5901,2.5902,0,0,2.5682,2.5698,2.5683,2.5694,2.5713,2.5733,2.5729,2.5754,2.5765,2.5754,2.5788,2.5783,2.5783,2.5791,2.5795,2.5737,2.5762,2.5736,2.5694,2.5678,2.567,2.5663,2.564,2.5632,2.5732,2.5732,2.5732,0,2.5641,2.5638,2.5672,2.5664,2.5668,2.571,2.5694,2.5703,2.572,2.5721,2.574,2.5739,2.5752,2.5732,2.5717,2.572,2.5715,2.5733,2.5669,2.5662,2.5656,2.5635,2.5626,2.5728,2.5729,2.5729,2.5729,0,2.5586,2.5583,2.5569,2.5585,2.5587,2.5575,2.5605,2.5603,2.5624,2.5642,2.5628,2.5645,2.5649,2.5646,2.5667,2.5628,2.5638,2.5663,2.5697,2.5643,2.5623,2.5615,2.5724,2.5725,2.5726,2.5727,0,0,2.5494,2.5527,2.5521,2.5528,2.555,2.5547,2.5535,2.554,2.5537,2.5546,2.5536,2.5533,2.5556,2.556,2.5582,2.5567,2.5517,2.5594,2.5594,2.5577,2.5473,2.5453,2.5443,2.5534,2.5533,2.5532,2.5471,0,2.5439,2.5422,2.5451,2.5427,2.5423,2.5462,2.5451,2.5462,2.5477,2.5475,2.5492,2.5488,2.5519,2.5522,2.551,2.5526,2.5497,2.5531,2.5523,2.5522,2.5517,2.5433,2.5413,2.5355,2.5464,2.5462,2.5462,0,2.5373,2.538,2.5355,2.5376,2.5375,2.5366,2.5371,2.5369,2.5381,2.5393,2.5397,2.5422,2.5409,2.5443,2.5425,2.5448,2.5446,2.5453,2.5451,2.5451,2.5488,2.5429,2.5337,2.5328,2.545,2.5451,2.5452,0,2.5305,2.5308,2.5293,2.5298,2.5322,2.5314,2.5324,2.5338,2.5338,2.5342,2.5342,2.5344,2.5345,2.5345,2.537,2.5392,2.5347,2.5384,2.5355,2.5354,2.5343,2.5343,2.5248,2.5344,2.5344,2.5344,2.5344,0,2.524,2.5223,2.5263,2.5253,2.5234,2.5267,2.5246,2.5259,2.5271,2.5263,2.5296,2.5288,2.5321,2.5315,2.5334,2.5314,2.5315,2.5323,2.5327,2.5319,2.5318,2.5317,2.5321,2.5342,2.5342,2.5343,2.5343,0,2.5162,2.5188,2.5173,2.5198,2.5203,2.5188,2.5207,2.5198,2.5216,2.5205,2.5204,2.523,2.5225,2.5249,2.5249,2.5261,2.5231,2.5243,2.5227,2.523,2.52,2.5201,2.51,2.5087,2.5192,2.5191,2.519,0,2.5118,2.5106,2.5128,2.5126,2.5134,2.513,2.513,2.516,2.5159,2.517,2.5159,2.5157,2.5156,2.5146,2.5163,2.5162,2.5173,2.5138,2.5173,2.5164,2.5171,2.517,2.5168,2.513,2.5129,2.5128,2.5127,0,2.5037,2.505,2.505,2.5053,2.5053,2.5057,2.5063,2.5059,2.5091,2.5087,2.5083,2.5082,2.5081,2.5077,2.5079,2.5087,2.5111,2.5116,2.5109,2.5099,2.5089,2.5092,2.5205,2.5118,2.5119,2.5119,2.512,2.512,2.4973,2.4963,2.4977,2.4975,2.4983,2.4987,2.4979,2.4995,2.4992,2.4994,2.5011,2.5002,2.5012,2.5017,2.5022,2.5014,2.5031,2.5021,2.5018,2.5015,2.5009,2.5092,2.5015,2.5015,2.5015,2.5016,2.5016,0,2.4893,2.4903,2.4901,2.4908,2.4905,2.493,2.4937,2.4933,2.4925,2.4933,2.4931,2.4924,2.492,2.4937,2.4935,2.4925,2.4936,2.4923,2.4923,2.4924,2.4995,2.5001,2.4914,2.4914,2.4914,2.4914,2.4914,2.4914,2.485,2.4834,2.4847,2.4834,2.4844,2.4836,2.4838,2.4841,2.4847,2.4838,2.4835,2.4846,2.4857,2.4855,2.4851,2.4856,2.4853,2.4836,2.4844,2.491,2.492,2.4929,2.4934,2.4835,2.4835,2.4774,2.4773,2.4773]}]]